EW2099 Weather Reports


time (UTC)temp
C
wind
direction
speed
KPH
gust
KPH
rain 1hr
cm
rain 24hr
cm
rain mn
cm
humidity
%
barometer
mb
20190420221637 13 52 3.2 12.9 0.00 0.00 0.00 65 1025.4
20190420220112 13 22 3.2 9.7 0.00 0.00 0.00 67 1025.4
20190420214635 13 23 3.2 9.7 0.00 0.00 0.00 67 1025.6
20190420213102 13 43 3.2 8.0 0.00 0.00 0.00 65 1025.6
20190420211555 13 37 3.2 6.4 0.00 0.00 0.00 65 1025.7
20190420210106 13 20 1.6 8.0 0.00 0.00 0.00 66 1025.7
20190420204555 12 32 0.0 4.8 0.00 0.00 0.00 70 1025.7
20190420203038 12 25 1.6 6.4 0.00 0.00 0.00 69 1025.7
20190420201542 13 31 1.6 6.4 0.00 0.00 0.00 68 1025.8
20190420200117 13 33 3.2 9.7 0.00 0.00 0.00 67 1025.9
20190420194532 13 5 4.8 12.9 0.00 0.00 0.00 64 1025.9
20190420193057 14 350 6.4 16.1 0.00 0.00 0.00 62 1025.9
20190420191604 13 50 6.4 19.3 0.00 0.00 0.00 62 1025.8
20190420190036 13 326 4.8 14.5 0.00 0.00 0.00 64 1025.9
20190420184516 13 354 4.8 12.9 0.00 0.00 0.00 62 1025.9
20190420183013 14 342 6.4 12.9 0.00 0.00 0.00 63 1026.0
20190420181534 15 46 9.7 17.7 0.00 0.00 0.00 60 1026.0
20190420180010 15 38 4.8 12.9 0.00 0.00 0.00 57 1026.0
20190420174504 15 17 6.4 19.3 0.00 0.00 0.00 60 1026.1
20190420171723 17 349 8.0 19.3 0.00 0.00 0.00 51 1026.1
20190420170241 17 358 4.8 17.7 0.00 0.00 0.00 49 1026.2
20190420164646 17 357 6.4 16.1 0.00 0.00 0.00 50 1026.3
20190420163221 16 31 8.0 16.1 0.00 0.00 0.00 53 1026.5
20190420161646 16 354 9.7 16.1 0.00 0.00 0.00 55 1026.6
20190420160137 16 35 8.0 17.7 0.00 0.00 0.00 55 1026.7
20190420154612 17 356 9.7 19.3 0.00 0.00 0.00 54 1026.8
20190420153120 16 356 8.0 19.3 0.00 0.00 0.00 59 1026.9
20190420151626 16 32 8.0 17.7 0.00 0.00 0.00 62 1027.1
20190420150112 15 25 9.7 17.7 0.00 0.00 0.00 64 1027.1
20190420144614 15 32 9.7 22.5 0.00 0.00 0.00 65 1027.3
20190420141535 15 44 8.0 19.3 0.00 0.00 0.00 66 1027.6
20190420140104 15 311 8.0 22.5 0.00 0.00 0.00 64 1027.7
20190420134528 15 323 9.7 17.7 0.00 0.00 0.00 61 1027.8
20190420133054 16 21 8.0 17.7 0.00 0.00 0.00 60 1028.0
20190420131528 16 18 8.0 19.3 0.00 0.00 0.00 58 1028.0
20190420130037 17 16 8.0 16.1 0.00 0.00 0.00 56 1028.1
20190420124535 17 20 4.8 19.3 0.00 0.00 0.00 58 1028.2
20190420123024 17 3 4.8 12.9 0.00 0.00 0.00 59 1028.3
20190420121540 17 28 6.4 12.9 0.00 0.00 0.00 61 1028.3
20190420120026 16 354 9.7 17.7 0.00 0.00 0.00 61 1028.5
20190420114506 17 41 8.0 19.3 0.00 0.00 0.00 60 1028.5
20190420113006 16 16 6.4 17.7 0.00 0.00 0.00 64 1028.5
20190420111726 17 342 3.2 14.5 0.00 0.00 0.00 62 1028.6
20190420110245 17 33 4.8 16.1 0.00 0.00 0.00 60 1028.6
20190420104637 19 30 4.8 12.9 0.00 0.00 0.00 52 1028.6
20190420103138 19 28 4.8 11.3 0.00 0.00 0.00 53 1028.7
20190420101738 19 33 6.4 14.5 0.00 0.00 0.00 49 1028.7
20190420100133 18 71 4.8 14.5 0.00 0.00 0.00 50 1028.8
20190420094607 18 21 6.4 16.1 0.00 0.00 0.00 48 1029.0
20190420093116 18 49 11.3 17.7 0.00 0.00 0.00 47 1029.0
20190420091554 17 14 3.2 14.5 0.00 0.00 0.00 55 1029.0
20190420090033 16 65 4.8 11.3 0.00 0.00 0.00 57 1029.2
20190420084530 16 63 4.8 11.3 0.00 0.00 0.00 58 1029.3
20190420083032 16 49 4.8 16.1 0.00 0.00 0.00 59 1029.1
20190420081528 16 65 4.8 12.9 0.00 0.00 0.00 59 1029.1
20190420080028 15 41 8.0 12.9 0.00 0.00 0.00 59 1029.2
20190420074514 15 53 4.8 12.9 0.00 0.00 0.00 60 1029.2
20190420073019 15 54 3.2 11.3 0.00 0.00 0.00 60 1029.2
20190420071513 15 25 1.6 12.9 0.00 0.00 0.00 61 1029.2
20190420070205 15 53 4.8 16.1 0.00 0.00 0.00 61 1029.1
20190420064618 15 84 3.2 8.0 0.00 0.00 0.00 61 1029.1
20190420063138 13 61 4.8 9.7 0.00 0.00 0.00 64 1028.9
20190420061649 13 67 6.4 9.7 0.00 0.00 0.00 65 1028.6
20190420060114 13 41 3.2 12.9 0.00 0.00 0.00 67 1028.8
20190420054609 12 49 3.2 12.9 0.00 0.00 0.00 68 1028.6
20190420053053 12 48 4.8 8.0 0.00 0.00 0.00 70 1028.6
20190420051619 11 53 3.2 9.7 0.00 0.00 0.00 71 1028.5
20190420050104 11 62 3.2 9.7 0.00 0.00 0.00 72 1028.3
20190420044559 11 48 3.2 8.0 0.00 0.00 0.00 71 1028.4
20190420043049 11 27 3.2 11.3 0.00 0.00 0.00 69 1028.3
20190420041529 12 13 1.6 6.4 0.00 0.00 0.00 67 1028.2
20190420040105 12 32 3.2 11.3 0.00 0.00 0.00 67 1028.0
20190420034610 12 60 4.8 9.7 0.00 0.00 0.00 68 1028.1
20190420033057 12 53 1.6 9.7 0.00 0.00 0.00 68 1027.9
20190420031529 12 38 3.2 8.0 0.00 0.00 0.00 67 1027.9
20190420030043 12 60 3.2 6.4 0.00 0.00 0.00 67 1028.0
20190420024518 12 12 1.6 4.8 0.00 0.00 0.00 68 1028.0
20190420023048 12 40 1.6 6.4 0.00 0.00 0.00 68 1028.0
20190420021512 12 37 1.6 4.8 0.00 0.00 0.00 70 1027.9
20190420020007 11 31 1.6 4.8 0.00 0.00 0.00 72 1028.0
20190420014501 11 23 1.6 4.8 0.00 0.00 0.00 73 1027.9
20190420013150 11 349 1.6 4.8 0.00 0.00 0.00 74 1028.0
20190420011801 11 25 1.6 4.8 0.00 0.00 0.00 73 1028.0
20190420010208 12 23 3.2 6.4 0.00 0.00 0.00 71 1028.1
20190420004652 12 25 1.6 4.8 0.00 0.00 0.00 70 1027.9
20190420003114 12 27 1.6 4.8 0.00 0.00 0.00 70 1028.0
20190420001607 12 25 3.2 6.4 0.00 0.00 0.00 67 1028.1
20190420000139 13 3 3.2 6.4 0.00 0.00 0.00 64 1028.1
20190419234553 13 11 3.2 6.4 0.00 0.00 0.00 64 1028.2
20190419233048 13 35 3.2 9.7 0.00 0.00 0.00 61 1028.1
20190419231551 14 355 4.8 12.9 0.00 0.00 0.00 61 1028.1
20190419230035 13 28 4.8 9.7 0.00 0.00 0.00 62 1028.2
20190419224548 13 41 3.2 11.3 0.00 0.00 0.00 62 1028.3
20190419223035 13 53 3.2 8.0 0.00 0.00 0.00 64 1028.3